Weather History for KBJC - October, 2013

Change the Weather History Date:

Tuesday, October 29, 2013

  Actual Average Record
Temperature  
Mean Temperature 34 °F -  
Max Temperature 37 °F 53 °F 80 °F (2003)
Min Temperature 32 °F 34 °F 10 °F (1991)
Degree Days  
Heating Degree Days 30    
Moisture  
Dew Point 32 °F    
Average Humidity 93    
Maximum Humidity 100    
Minimum Humidity 75    
Precipitation  
Precipitation 0.00 in - - ()
Sea Level Pressure  
Sea Level Pressure 29.96 in    
Wind  
Wind Speed 4 mph (NE)    
Max Wind Speed 10 mph    
Max Gust Speed -    
Visibility 5 miles    
Events Rain    
Averages and records for this station are not official NWS values.
T = Trace of Precipitation, MM = Missing Value Source: NWS Daily Summary

Daily Weather History Graph

Daily Weather History Graph

Search for Another Location

Airport or City:

Trip Planner

Search our weather history database for the weather conditions in past years. The results will help you decide how hot, cold, wet, or windy it might be!

Date:

Astronomy

Oct. 29, 2013 Rise Set
Actual Time 7:26 AM MDT 6:01 PM MDT
Civil Twilight 6:58 AM MDT 6:29 PM MDT
Nautical Twilight 6:26 AM MDT 7:01 PM MDT
Astronomical Twilight 5:55 AM MDT 7:32 PM MDT
Moon 2:19 AM MDT (10/29) 3:16 PM MDT (10/29)
Length of Visible Light 11h 30m
Length of Day
10h 35m
Waning Crescent, 24% of the Moon is Illuminated
Oct 29
Waning Crescent
Nov 3
New
Nov 9
First Quarter
Nov 17
Full
Nov 25
Last Quarter

Hourly Weather History & Observations

Time (MDT) Temp. Windchill Dew Point Humidity Pressure Visibility Wind Dir Wind Speed Gust Speed Precip Events Conditions
12:15 AM 32.0 °F 27.5 °F 32.0 °F 100% 30.02 in 1.8 mi East 4.6 mph - N/A   Overcast
12:35 AM 32.0 °F 28.7 °F 32.0 °F 100% 30.01 in 2.0 mi East 3.5 mph - N/A   Overcast
12:55 AM 32.0 °F 28.7 °F 32.0 °F 100% 30.00 in 2.0 mi ENE 3.5 mph - N/A   Overcast
1:15 AM 32.0 °F 28.7 °F 32.0 °F 100% 29.99 in 1.8 mi NE 3.5 mph - N/A   Overcast
1:35 AM 32.0 °F 27.5 °F 32.0 °F 100% 29.99 in 1.8 mi East 4.6 mph - N/A   Overcast
1:55 AM 32.0 °F 26.4 °F 32.0 °F 100% 29.98 in 1.8 mi East 5.8 mph - N/A   Overcast
2:15 AM 32.0 °F 27.5 °F 32.0 °F 100% 29.99 in 1.8 mi East 4.6 mph - N/A   Overcast
2:35 AM 32.0 °F 27.5 °F 32.0 °F 100% 29.98 in 2.0 mi NE 4.6 mph - N/A   Overcast
2:54 AM 32.0 °F 28.7 °F 32.0 °F 100% 29.98 in 2.0 mi ENE 3.5 mph - N/A   Overcast
3:15 AM 32.0 °F 28.7 °F 32.0 °F 100% 29.97 in 2.0 mi ENE 3.5 mph - N/A   Overcast
3:35 AM 32.0 °F 28.7 °F 32.0 °F 100% 29.97 in 2.5 mi East 3.5 mph - N/A   Overcast
3:55 AM 32.0 °F 27.5 °F 32.0 °F 100% 29.97 in 1.5 mi NE 4.6 mph - N/A   Overcast
4:15 AM 32.0 °F 27.5 °F 32.0 °F 100% 29.96 in 1.2 mi ENE 4.6 mph - N/A   Overcast
4:35 AM 32.0 °F 28.7 °F 32.0 °F 100% 29.96 in 1.5 mi NE 3.5 mph - N/A   Overcast
4:55 AM 32.0 °F 27.5 °F 32.0 °F 100% 29.96 in 1.2 mi ENE 4.6 mph - N/A   Overcast
5:14 AM 32.0 °F 26.4 °F 32.0 °F 100% 29.96 in 1.0 mi East 5.8 mph - N/A   Overcast
5:34 AM 32.0 °F 26.4 °F 32.0 °F 100% 29.96 in 1.5 mi East 5.8 mph - N/A   Overcast
5:47 AM 32.0 °F 25.6 °F 32.0 °F 100% 29.96 in 0.2 mi NE 6.9 mph - N/A   Light Drizzle
5:55 AM 32.0 °F 25.6 °F 32.0 °F 100% 29.96 in 1.5 mi ENE 6.9 mph - N/A   Overcast
6:47 AM 32.0 °F 26.4 °F 32.0 °F 100% 29.98 in 1.5 mi ENE 5.8 mph - N/A   Light Drizzle
7:24 AM 32.0 °F 27.5 °F 32.0 °F 100% 29.98 in 1.2 mi NE 4.6 mph - N/A   Light Drizzle
7:47 AM 32.0 °F 27.5 °F 32.0 °F 100% 29.99 in 1.5 mi NE 4.6 mph - N/A   Light Drizzle
9:54 AM 33.8 °F 30.8 °F 32.0 °F 93% 29.99 in 3.0 mi ENE 3.5 mph - N/A   Overcast
11:47 AM 35.6 °F - 30.2 °F 81% 29.96 in 5.0 mi Calm Calm - N/A   Overcast
12:45 PM 35.6 °F 31.7 °F 32.0 °F 87% 29.95 in 5.0 mi NNW 4.6 mph - N/A   Overcast
1:00 PM 35.6 °F 30.7 °F 32.0 °F 87% 29.94 in 5.0 mi NNW 5.8 mph - N/A   Overcast
1:45 PM 35.6 °F 31.7 °F 32.0 °F 87% 29.93 in 5.0 mi NNW 4.6 mph - N/A   Overcast
2:50 PM 37.4 °F - 30.2 °F 75% 29.92 in 5.0 mi Calm Calm - N/A   Overcast
3:48 PM 37.4 °F - 33.8 °F 87% 29.93 in 6.0 mi Calm Calm - N/A   Overcast
4:51 PM 37.4 °F 34.9 °F 30.2 °F 75% 29.93 in 12.0 mi West 3.5 mph - N/A   Overcast
5:49 PM 37.4 °F 34.9 °F 30.2 °F 75% 29.95 in 15.0 mi NW 3.5 mph - N/A   Overcast
6:45 PM 37.4 °F - 32.0 °F 81% 29.95 in 15.0 mi Calm Calm - N/A   Mostly Cloudy
7:47 PM 35.6 °F - 32.0 °F 87% 29.95 in 15.0 mi Calm Calm - N/A   Mostly Cloudy
8:45 PM 35.6 °F - 30.2 °F 81% 29.94 in 15.0 mi Calm Calm - N/A   Mostly Cloudy
9:47 PM 35.6 °F 31.7 °F 32.0 °F 87% 29.95 in 15.0 mi ESE 4.6 mph - N/A   Mostly Cloudy
11:15 PM 37.4 °F - 32.0 °F 81% 29.92 in 7.0 mi Calm Calm - N/A Rain Light Rain
11:34 PM 35.6 °F 31.7 °F 32.0 °F 87% 29.89 in 7.0 mi North 4.6 mph - N/A   Light Drizzle
11:55 PM 35.6 °F 28.0 °F 32.0 °F 87% 29.86 in 4.0 mi NNW 10.4 mph - N/A   Mostly Cloudy